Regional Weather Roundup
Issued by NWS

Home | Current Version | Previous Version | Graphics & Text | Print | Product List | Glossary On
Versions: 1 2 3 4 5 6 7 8 9 10 11 12 13 14 15 16 17 18 19 20 21 22 23 24 25 26 27
000
ASUS45 KBOU 231010
RWRCO

WEATHER ROUNDUP FOR COLORADO
NATIONAL WEATHER SERVICE DENVER/BOULDER CO
400 AM MDT WED MAY 23 2018

NOTE: "FAIR" INDICATES FEW OR NO CLOUDS BELOW 12000 FEET WITH NO
SIGNIFICANT WEATHER AND/OR OBSTRUCTIONS TO VISIBILITY.

COZ001>005-013-030-031-231100-
...NORTHWEST COLORADO...

CITY           SKY/WX    TMP DP  RH WIND       PRES   REMARKS
CRAIG          FAIR      38  36  92 CALM      30.05R
HAYDEN         FAIR      42  39  89 E9        30.07S
MEEKER         FAIR      40  36  86 CALM      30.05R
RANGELY        FAIR      42  40  93 CALM      30.01S
RABBIT EARS PA FAIR      34  34 100 CALM      30.24R
STEAMBOAT SPGS FAIR      36  36 100 CALM      30.08S
WALDEN         FAIR      36  32  87 CALM      30.15R
$$

COZ006>008-011-231100-
...WEST CENTRAL VALLEYS...

CITY           SKY/WX    TMP DP  RH WIND       PRES   REMARKS
GRAND JUNCTION FAIR      50  42  74 S7        29.95S
MONTROSE       FAIR      43  36  76 S6        30.03S
EAGLE          FAIR      39  35  86 E6        30.13R
RIFLE          FAIR      44  38  79 CALM      30.03R
DELTA          FAIR      48  43  82 CALM      30.00S
NUCLA          FAIR      46  32  57 E9        30.04R
$$

COZ017>023-064>068-231100-
...SOUTHWEST COLORADO...

CITY           SKY/WX    TMP DP  RH WIND       PRES   REMARKS
DURANGO        FAIR      36  26  67 NE5       30.08R
CORTEZ         FAIR      43  27  53 NE8       30.03R
PAGOSA SPRINGS FAIR      40  26  56 CALM      30.12S
TELLURIDE      CLOUDY    43  27  53 SE6       30.19S
WOLF CREEK PAS MOCLDY    34  30  86 S3        30.37S
$$

COZ009-010-012-014-032>034-037-058>063-231100-
...CENTRAL COLORADO...

CITY           SKY/WX    TMP DP  RH WIND       PRES   REMARKS
ASPEN          FAIR      36  31  82 S3        30.11S
BUENA VISTA    FAIR      40  34  77 NW7       30.16R
COPPER MTN     FAIR      41  25  52 SE7       30.33S
BERTHOUD PASS  FAIR      34  23  64 S12G17    30.36S WCI  25
COTTONWOOD PAS FAIR      50  30  46 CALM      30.23S
GUNNISON       FAIR      38  33  82 CALM      30.15R
GRANBY         FAIR      33  32  97 CALM      30.18S
KREMMLING      CLOUDY    43  41  93 CALM      30.16S
LEADVILLE      FAIR      29  27  92 NE5       30.22R WCI  24
MONARCH PASS   FAIR      37  23  56 MISG      30.43S
SALIDA         FAIR      46  34  63 W5        30.21R
SUNLIGHT       CLOUDY    36  30  80 S5        30.28S
WILKERSON PASS FAIR      39  30  70 S7        30.33S
$$

COZ069>075-231100-
...SAN LUIS VALLEY/SANGRE DE CRISTO MOUNTAINS...

CITY           SKY/WX    TMP DP  RH WIND       PRES   REMARKS
ALAMOSA        FAIR      44  40  85 SE12      30.11R
DEL NORTE      FAIR      38  28  66 W9        30.15R
LA VETA PASS   FAIR      43  32  65 SW15G21   30.37R
SAGUACHE       NOT AVBL
$$

COZ035-036-038>040-231100-
...NORTHERN COLORADO FRONT RANGE...

CITY           SKY/WX    TMP DP  RH WIND       PRES   REMARKS
DENVER INTL AP FAIR      55  45  68 CALM      30.01S
AURORA         PTCLDY    49  46  88 S7        30.03S
FRONT RANGE AP FAIR      54  47  78 SW6       30.02S
ERIE MUNI ARPT FAIR      51  48  90 CALM      30.05S
BOULDER MUN AP FAIR      52  45  76 CALM      30.00R
CENTENNIAL     FAIR      49  45  86 SW6       30.04R
BROOMFIELD     FAIR      52  46  82 SW6       30.03S
FORT COLLINS   FAIR      50  48  93 SE7       30.01R
LONGMONT       FAIR      50  46  87 CALM      30.02R
$$

COZ041-046-047-076>085-087-088-231100-
...PIKES PEAK/PALMER DIVIDE AND SOUTHERN FOOTHILLS...

CITY           SKY/WX    TMP DP  RH WIND       PRES   REMARKS
COLO. SPRINGS  FAIR      55  45  68 NW12      30.05S
A. F. ACADEMY  FAIR      46  42  86 N8        30.07S
SCHRIEVER AFB  NOT AVBL
CHEYENNE MTN   FAIR      57  41  55 N12       30.02F
ELLICOTT         N/A    N/A N/A N/A NE12      30.02F
FALCON         FAIR      51  42  71 N10       30.08F
FORT CARSON    FAIR      53  43  70 N14       30.01S
LIMON          FAIR      52  47  83 S5        30.01F
MONUMENT HILL  FAIR      41  37  87 SW5       30.11S
CANON CITY     FAIR      54  43  66 S8        30.00R
WALSENBURG     FAIR      50  41  71 S3        30.04R
TRINIDAD       FAIR      60  48  64 E7        30.03R
$$

COZ042>045-048>051-090-091-231100-
...NORTHEAST COLORADO...

CITY           SKY/WX    TMP DP  RH WIND       PRES   REMARKS
GREELEY ARPT   FAIR      53  48  83 SW6       29.99S
AKRON          FAIR      56  51  84 CALM      29.96S
BURLINGTON     FAIR      64  48  56 S21       29.95R
WRAY           FAIR      57  52  82 SE3       29.94S
YUMA           FAIR      57  43  58 SW8       29.95R
STERLING       FAIR      54  52  94 CALM      29.93S
HOLYOKE        FAIR      61  54  77 S10       29.93R
FORT MORGAN    FAIR      55  48  78 CALM      29.98R
$$

COZ086-089-092>099-231100-
...SOUTHEAST COLORADO...

CITY           SKY/WX    TMP DP  RH WIND       PRES   REMARKS
PUEBLO         FAIR      55  41  59 S3        29.96R
LA JUNTA       FAIR      61  50  67 SE8       29.97R
LAMAR          FAIR      63  53  70 SW14G20   29.95R
SPRINGFIELD      N/A     60  51  72 S38G49    29.99F
$$




USA.gov is the U.S. government's official web portal to all federal, state and local government web resources and services.